DW8722 Weather Reports


Display with metric or nautical units.
time (UTC)temp
F
wind
direction
speed
MPH
gust
MPH
rain 1hr
in
rain 24hr
in
rain mn
in
humidity
%
barometer
mb
20260902204954 98 83 5.0 15.0 0.00 0.00 0.00 42 1011.4
20260902203941 97 101 4.0 12.0 0.00 0.00 0.00 43 1011.6
20260902202915 98 108 4.0 12.0 0.00 0.00 0.00 42 1011.8
20260902201935 98 81 3.0 12.0 0.00 0.00 0.00 43 1011.9
20260902200950 97 54 5.0 13.0 0.00 0.00 0.00 44 1012.0
20260902195947 97 80 4.0 13.0 0.00 0.00 0.00 45 1012.1
20260902194923 97 37 2.0 11.0 0.00 0.00 0.00 45 1012.3
20260902193909 97 90 3.0 11.0 0.00 0.00 0.00 44 1012.4
20260902192844 97 42 4.0 10.0 0.00 0.00 0.00 44 1012.6
20260902191900 96 77 3.0 10.0 0.00 0.00 0.00 45 1012.7
20260902190839 96 103 5.0 11.0 0.00 0.00 0.00 46 1012.8
20260902185810 95 30 4.0 11.0 0.00 0.00 0.00 47 1013.1
20260902184820 96 67 2.0 9.0 0.00 0.00 0.00 47 1013.1
20260902183747 95 107 4.0 11.0 0.00 0.00 0.00 48 1013.4
20260902182726 95 51 4.0 13.0 0.00 0.00 0.00 49 1013.6
20260902181706 94 22 5.0 13.0 0.00 0.00 0.00 49 1013.8
20260902180712 94 54 3.0 12.0 0.00 0.00 0.00 50 1013.9
20260902175708 94 41 5.0 10.0 0.00 0.00 0.00 50 1014.3
20260902174708 94 107 2.0 12.0 0.00 0.00 0.00 52 1014.4
20260902173648 94 94 3.0 12.0 0.00 0.00 0.00 51 1014.5
20260902172617 93 95 4.0 11.0 0.00 0.00 0.00 52 1014.7
20260902171550 93 138 4.0 10.0 0.00 0.00 0.00 53 1014.8
20260902170614 92 84 5.0 10.0 0.00 0.00 0.00 54 1015.1
20260902165557 91 113 3.0 10.0 0.00 0.00 0.00 55 1015.2
20260902164607 90 84 3.0 9.0 0.00 0.00 0.00 57 1015.4
20260902163556 90 110 2.0 9.0 0.00 0.00 0.00 58 1015.4
20260902162534 89 98 2.0 8.0 0.00 0.00 0.00 59 1015.6
20260902161540 89 88 2.0 9.0 0.00 0.00 0.00 62 1015.6
20260902160551 88 93 2.0 9.0 0.00 0.00 0.00 63 1015.6
20260902155542 88 102 3.0 9.0 0.00 0.00 0.00 64 1015.7
20260902154545 87 153 2.0 9.0 0.00 0.00 0.00 65 1015.6
20260902153521 87 126 3.0 9.0 0.00 0.00 0.00 65 1015.6
20260902152525 86 143 2.0 8.0 0.00 0.00 0.00 68 1015.5
20260902150425 85 165 2.0 7.0 0.00 0.00 0.00 70 1015.4
20260902145449 84 121 0.0 2.0 0.00 0.00 0.00 72 1015.4
20260902144428 84 118 0.0 0.0 0.00 0.00 0.00 72 1015.4
20260902143402 83 107 0.0 6.0 0.00 0.00 0.00 73 1015.4
20260902142347 83 131 0.0 6.0 0.00 0.00 0.00 74 1015.4
20260902141322 83 176 2.0 8.0 0.00 0.00 0.00 74 1015.3
20260902140311 83 121 1.0 7.0 0.00 0.00 0.00 73 1015.4
20260902135246 83 96 3.0 9.0 0.00 0.00 0.00 75 1015.4
20260902131914 79 98 2.0 7.0 0.00 0.00 0.00 79 1015.4
20260902130841 78 107 0.0 5.0 0.00 0.00 0.00 82 1015.2
20260902125843 76 88 0.0 0.0 0.00 0.00 0.00 83 1015.2
20260902124813 76 103 0.0 0.0 0.00 0.00 0.00 84 1015.0
20260902123836 75 103 0.0 0.0 0.00 0.00 0.00 84 1014.9
20260902122814 75 103 0.0 0.0 0.00 0.00 0.00 84 1014.8
20260902121820 75 104 0.0 0.0 0.00 0.00 0.00 84 1014.7
20260902120824 75 116 0.0 0.0 0.00 0.00 0.00 84 1014.7
20260902115802 75 122 0.0 0.0 0.00 0.00 0.00 84 1014.6
20260902113700 75 119 1.0 3.0 0.00 0.00 0.00 84 1014.7
20260902112724 75 124 1.0 1.0 0.00 0.00 0.00 84 1014.7
20260902111704 75 119 0.0 2.0 0.00 0.00 0.00 85 1014.7
20260902110657 75 118 0.0 0.0 0.00 0.00 0.00 85 1014.7
20260902105706 75 119 0.0 0.0 0.00 0.00 0.00 85 1014.8
20260902104633 75 125 0.0 0.0 0.00 0.00 0.00 85 1014.8
20260902102502 75 126 0.0 0.0 0.00 0.00 0.00 84 1014.6
20260902101451 75 126 0.0 0.0 0.00 0.00 0.00 83 1014.6
20260902100446 76 126 0.0 0.0 0.00 0.00 0.00 83 1014.6
20260902092855 76 128 0.0 0.0 0.00 0.00 0.00 81 1014.4
20260902091822 76 128 0.0 0.0 0.00 0.00 0.00 81 1014.4
20260902090825 76 128 0.0 0.0 0.00 0.00 0.00 80 1014.4
20260902085824 77 128 0.0 0.0 0.00 0.00 0.00 80 1014.3
20260902083643 77 128 0.0 0.0 0.00 0.00 0.00 78 1014.3
20260902082643 77 128 0.0 0.0 0.00 0.00 0.00 77 1014.3
20260902081622 78 128 0.0 0.0 0.00 0.00 0.00 76 1014.3
20260902080617 78 128 0.0 0.0 0.00 0.00 0.00 76 1014.3
20260902075547 79 128 0.0 0.0 0.00 0.00 0.00 75 1014.3
20260902074517 79 128 0.0 0.0 0.00 0.00 0.00 75 1014.3
20260902073500 79 128 1.0 3.0 0.00 0.00 0.00 74 1014.3
20260902072451 80 126 0.0 2.0 0.00 0.00 0.00 74 1014.4
20260902071420 80 126 1.0 3.0 0.00 0.00 0.00 73 1014.4
20260902065307 80 138 1.0 3.0 0.00 0.00 0.00 72 1014.4
20260902064312 81 133 1.0 2.0 0.00 0.00 0.00 71 1014.4
20260902062203 81 133 0.0 0.0 0.00 0.00 0.00 69 1014.3
20260902061201 82 135 0.0 4.0 0.00 0.00 0.00 69 1014.4
20260902060213 82 138 0.0 4.0 0.00 0.00 0.00 68 1014.4
20260902055146 82 128 1.0 5.0 0.00 0.00 0.00 67 1014.3
20260902054115 82 140 1.0 5.0 0.00 0.00 0.00 66 1014.2
20260902053114 83 159 1.0 4.0 0.00 0.00 0.00 66 1014.2
20260902052122 83 137 1.0 4.0 0.00 0.00 0.00 65 1014.2
20260902051143 83 136 1.0 4.0 0.00 0.00 0.00 64 1014.2
20260902050200 84 135 1.0 4.0 0.00 0.00 0.00 62 1014.2
20260902045149 84 138 1.0 7.0 0.00 0.00 0.00 62 1014.2
20260902044154 84 136 1.0 7.0 0.00 0.00 0.00 62 1014.2
20260902043218 85 121 2.0 6.0 0.00 0.00 0.00 61 1014.1
20260902042206 85 123 3.0 7.0 0.00 0.00 0.00 61 1014.1
20260902041201 85 128 2.0 7.0 0.00 0.00 0.00 61 1014.0
20260902035039 85 90 1.0 6.0 0.00 0.00 0.00 60 1013.7
20260902034057 86 82 1.0 6.0 0.00 0.00 0.00 59 1013.7
20260902033044 86 92 2.0 5.0 0.00 0.00 0.00 59 1013.7
20260902025804 87 88 0.0 3.0 0.00 0.00 0.00 57 1013.4
20260902024807 87 90 0.0 0.0 0.00 0.00 0.00 56 1013.2
20260902023828 88 90 0.0 0.0 0.00 0.00 0.00 55 1013.1
20260902022757 88 93 0.0 2.0 0.00 0.00 0.00 54 1012.9
20260902021819 89 105 1.0 3.0 0.00 0.00 0.00 53 1012.8
20260902015658 90 93 1.0 5.0 0.00 0.00 0.00 52 1012.4
20260902014702 91 84 2.0 6.0 0.00 0.00 0.00 51 1012.2
20260902012553 92 105 2.0 7.0 0.00 0.00 0.00 48 1012.0
20260902011550 93 112 2.0 6.0 0.00 0.00 0.00 47 1012.0
20260902010522 94 102 3.0 9.0 0.00 0.00 0.00 46 1011.9
20260902004339 95 88 3.0 10.0 0.00 0.00 0.00 44 1011.8
20260902002211 96 29 0.0 2.0 0.00 0.00 0.00 43 1011.9
20260902001200 96 75 0.0 1.0 0.00 0.00 0.00 42 1012.0
20260902000149 96 77 0.0 0.0 0.00 0.00 0.00 43 1012.1
20260901235153 96 77 0.0 0.0 0.00 0.00 0.00 43 1012.0
20260901234146 96 77 0.0 0.0 0.00 0.00 0.00 42 1012.1
20260901233207 97 77 0.0 3.0 0.00 0.00 0.00 42 1012.3
20260901232231 97 100 3.0 8.0 0.00 0.00 0.00 41 1012.3
20260901230111 98 101 3.0 10.0 0.00 0.00 0.00 40 1012.2
20260901225038 97 67 0.0 6.0 0.00 0.00 0.00 41 1012.3
20260901224025 96 71 0.0 2.0 0.00 0.00 0.00 42 1012.2
20260901223022 96 100 3.0 7.0 0.00 0.00 0.00 42 1012.3
20260901222019 97 98 2.0 7.0 0.00 0.00 0.00 42 1012.3
20260901221028 97 78 1.0 8.0 0.00 0.00 0.00 42 1012.4
20260901220051 98 88 2.0 11.0 0.00 0.00 0.00 40 1012.4
20260901213901 98 112 1.0 12.0 0.00 0.00 0.00 39 1012.5
20260901212849 98 96 4.0 12.0 0.00 0.00 0.00 39 1012.5
20260901211831 98 159 4.0 10.0 0.00 0.00 0.00 40 1012.7